Wind_Speed
14 12 13 15 16 17 18 18 19 21 22 22 24 30 32 28 30 31 29 25 25 24 27 28 26 25 27 27 30 28 25 26 21 19 22 21 23 23 23 21 21 21 21
12 10 10 11 16 16 17 18 20 21 22 27 26 29 33 35 35 36 37 37 36 33 33 33 33 30 31 29 28 29 28 28 27 28 18 10 20 27 28 26 24 24 24
5 2 1 2 1 6 15 20 23 24 23 23 24 26 24 24 23 31 36 39 39 38 34 36 35 33 35 33 33 35 33 34 34 34 21 10 13 14 20 28 28 26 27
4 3 2 3 4 1 3 7 13 19 25 27 28 26 24 25 27 25 24 26 31 34 35 36 35 36 33 35 37 37 39 38 37 37 38 29 14 13 11 20 26 27 27
5 4 4 5 4 3 4 3 3 6 11 17 24 27 28 26 25 25 23 24 26 29 36 36 34 39 36 37 40 40 40 43 39 42 40 40 38 27 17 14 19 24 28
4 4 3 4 5 5 5 4 4 6 7 9 12 17 24 20 22 21 23 23 23 27 30 32 32 33 36 39 40 43 44 45 43 39 42 42 44 47 41 32 22 21 22
2 3 4 4 6 7 7 7 6 6 8 8 9 10 14 20 24 22 22 22 24 26 30 31 32 32 31 33 35 39 43 45 44 43 45 45 44 40 38 37 34 27 27
2 3 5 6 7 8 8 8 8 7 8 9 10 9 10 12 14 18 22 21 21 21 21 26 28 29 31 31 31 35 39 41 42 42 44 47 48 45 42 39 34 22 22
2 5 6 7 7 8 9 9 9 8 9 10 8 8 9 12 12 14 14 15 16 18 20 20 23 26 25 25 28 31 35 37 38 37 38 43 45 43 39 39 34 27 20
3 6 6 6 6 7 8 7 6 6 8 9 9 9 10 11 13 14 16 18 19 20 22 25 27 28 29 26 25 27 29 30 31 34 36 37 40 40 36 33 30 26 19
4 5 4 5 5 6 5 4 5 6 6 7 7 9 10 12 12 13 14 15 17 19 22 24 26 28 28 26 23 23 24 27 29 30 32 33 33 32 27 28 22 21 17
3 2 2 2 3 4 5 5 5 6 6 7 7 8 10 11 12 13 14 15 16 17 18 19 19 21 21 20 19 22 23 23 25 27 26 26 26 24 21 17 14 15 14
2 1 2 2 3 4 5 6 6 7 7 8 9 10 11 11 12 13 13 15 16 17 18 17 17 16 16 16 17 19 21 20 21 20 18 16 14 12 11 10 12 13 14
2 1 1 1 2 3 4 5 5 5 6 7 8 8 7 8 11 11 9 9 10 12 13 14 14 14 13 13 15 15 15 15 13 11 9 8 7 7 9 11 13 12 11
2 1 1 0 1 2 4 5 5 5 6 7 9 10 10 10 8 7 8 10 12 11 9 10 10 8 6 4 4 5 7 9 10 10 9 9 8 9 9 8 7 8 10
3 3 2 1 1 2 2 2 4 4 5 6 7 8 9 10 9 9 8 9 10 7 5 4 5 7 8 10 9 8 8 7 6 7 6 6 5 4 3 6 8 9 8
4 4 3 2 1 0 1 1 2 3 4 5 6 7 8 8 8 9 11 11 12 11 11 13 12 11 11 7 6 6 5 7 4 4 4 4 1 1 4 5 6 8 9
4 4 4 3 1 1 0 1 3 3 3 5 5 6 7 7 9 11 12 13 12 13 12 12 11 9 11 7 5 4 2 2 2 4 3 2 3 5 6 7 9 10 11
5 6 6 6 4 2 1 1 1 2 5 7 9 11 12 13 13 13 14 13 12 12 12 11 10 9 8 5 5 7 8 6 4 4 5 6 7 8 8 8 11 8 8
5 5 5 6 5 3 3 3 3 6 8 10 11 13 13 13 15 15 14 13 11 10 9 8 9 9 9 7 5 4 5 5 6 7 8 8 9 9 9 8 7 11 8
6 7 7 6 4 5 5 7 9 11 12 13 15 15 15 13 13 12 11 10 10 9 8 7 7 6 7 8 9 8 8 8 9 9 10 11 11 12 12 11 9 9 8
6 8 7 8 6 6 9 10 12 14 15 14 14 13 12 11 10 9 9 8 7 6 6 7 7 8 9 9 11 11 10 10 9 9 10 10 12 11 8 5 5 5 6
8 9 10 9 8 9 11 14 16 15 14 13 12 12 11 9 8 7 6 5 4 4 4 5 7 8 9 11 12 13 12 12 10 11 12 12 10 6 4 4 5 6 6
9 10 12 11 13 14 15 14 14 13 12 11 11 10 8 7 6 4 3 2 3 4 5 7 8 9 9 9 9 10 10 12 10 11 10 8 6 4 4 5 6 7 8
11 12 12 14 15 16 15 14 14 13 12 10 9 8 7 5 3 1 1 2 3 4 5 6 7 7 8 10 11 11 11 11 12 11 7 5 4 5 6 8 8 9 10
14 15 15 16 17 15 15 15 14 13 11 10 9 7 6 5 3 2 1 2 4 5 6 7 8 9 10 11 12 12 13 13 11 8 6 5 6 7 8 10 11 11 13
Wind_Direction
256 254 263 258 253 250 247 244 241 238 239 233 235 250 259 256 253 250 243 243 241 238 239 243 238 231 228 232 243 228 220 227 214 222 231 237 242 244 245 246 241 243 246
265 266 271 263 252 248 246 247 244 243 241 246 237 249 261 260 256 254 250 248 250 250 247 249 249 240 237 232 233 233 220 228 220 219 227 235 249 247 245 243 240 243 247
225 245 323 6 291 248 244 242 239 233 236 234 240 237 251 248 253 257 256 252 253 249 244 249 248 244 244 239 238 235 229 227 235 230 217 213 224 244 247 239 239 235 242
137 112 82 50 38 353 284 259 258 253 246 243 237 232 237 243 245 248 253 265 263 261 255 245 247 247 243 246 244 239 245 232 234 237 231 224 215 209 219 236 234 232 232
114 88 58 46 23 24 20 6 321 277 262 254 248 246 244 242 249 253 259 254 254 262 266 264 255 252 245 247 251 246 237 244 238 245 241 233 230 228 222 227 233 232 233
92 61 43 35 11 344 340 334 335 319 301 280 265 257 246 242 248 250 252 254 257 257 260 267 265 262 256 251 253 253 251 248 246 240 247 245 238 236 235 236 244 245 242
70 25 4 349 336 330 328 326 318 311 301 295 290 279 265 251 241 245 252 257 261 263 265 268 269 269 266 258 257 252 253 254 254 247 245 250 248 245 249 249 243 231 235
14 359 345 334 327 328 317 308 306 306 296 285 281 282 277 273 262 257 251 250 257 259 259 276 275 272 271 266 260 256 251 250 254 255 243 244 250 248 247 248 243 234 238
338 338 333 328 326 325 311 304 296 294 295 285 280 271 267 260 258 256 260 263 261 258 257 252 261 273 271 268 260 258 256 254 252 253 244 242 249 250 248 245 249 247 249
326 330 337 341 340 332 321 319 309 306 298 293 291 289 287 286 284 284 278 274 272 271 271 273 276 275 273 268 265 261 260 260 257 253 252 250 251 249 245 247 250 253 249
314 325 332 346 349 352 356 0 2 356 344 330 324 310 301 292 287 283 279 278 275 274 276 277 277 276 274 273 267 261 258 256 255 254 251 247 245 247 248 246 248 254 242
298 307 322 355 3 7 14 14 13 2 355 349 334 318 305 302 293 288 285 285 283 285 286 289 290 286 279 272 263 261 258 256 255 252 244 238 242 243 244 247 256 256 265
274 288 317 347 5 7 8 7 0 354 349 353 340 325 322 322 312 300 292 291 291 294 297 294 286 278 274 266 261 257 256 252 248 242 235 228 224 227 238 257 258 263 267
223 290 300 322 359 1 0 3 357 352 355 354 355 343 335 340 337 335 331 331 326 318 306 293 283 274 266 261 253 251 246 233 218 204 196 194 204 223 236 238 248 252 256
234 256 229 298 347 344 350 358 350 354 359 7 10 11 7 5 356 352 344 334 338 332 326 316 302 292 277 279 249 213 187 174 167 161 178 193 211 226 237 251 261 269 262
226 221 220 202 316 345 324 354 346 357 6 6 17 16 20 15 4 23 18 9 12 1 27 55 68 79 78 73 93 119 138 156 163 171 189 196 204 214 248 262 261 258 260
214 206 200 183 176 223 1 351 317 332 9 21 23 26 41 42 39 48 51 59 69 74 76 77 78 85 89 99 106 120 147 154 151 161 188 213 242 259 267 276 276 272 268
208 206 187 179 161 138 60 345 322 4 40 52 57 63 64 67 77 80 85 84 84 82 80 76 74 82 88 88 91 92 115 124 53 28 30 356 311 300 291 282 278 284 289
198 191 193 199 185 185 178 253 18 73 92 93 94 91 90 91 92 93 89 85 83 86 83 82 83 83 87 73 42 40 39 39 18 339 314 301 297 290 284 280 293 303 291
187 192 193 208 213 200 160 185 156 121 117 111 109 104 101 100 96 93 93 94 90 86 82 77 73 71 67 64 44 24 5 342 330 319 312 308 302 297 291 290 271 282 281
189 187 187 193 199 190 184 156 134 128 123 116 109 105 101 98 97 99 97 95 91 84 78 69 62 44 17 1 359 358 343 332 322 317 310 309 301 294 294 286 270 259 276
190 178 176 186 187 182 163 151 142 131 124 117 117 117 113 110 109 105 98 88 77 63 46 30 18 8 352 345 337 339 336 330 324 315 310 301 314 312 309 296 289 291 299
190 183 190 181 176 164 156 151 138 131 127 128 126 122 120 120 113 105 96 82 61 35 14 4 352 345 341 339 342 341 338 329 323 310 309 309 312 313 311 311 306 302 308
195 186 185 182 170 157 151 154 147 144 141 143 137 133 133 131 126 120 104 75 31 11 354 345 344 341 339 335 336 333 334 334 329 319 315 315 312 307 303 302 310 317 311
197 186 188 178 170 164 162 163 161 160 158 157 154 154 153 152 147 140 56 4 350 340 330 328 325 324 323 319 325 322 322 314 311 318 315 318 316 314 314 315 314 312 307
199 190 183 180 178 175 172 173 174 172 173 175 175 175 174 177 192 237 278 306 320 328 332 330 325 324 323 324 322 320 319 316 314 315 313 307 304 304 303 306 305 306 308
Height
1493 1493 1494 1494 1495 1497 1499 1501 1502 1504 1506 1508 1510 1507 1508 1511 1513 1515 1517 1518 1519 1521 1521 1521 1523 1525 1526 1525 1525 1528 1531 1531 1534 1534 1534 1535 1535 1535 1536 1537 1538 1538 1538
1489 1490 1490 1489 1490 1492 1494 1495 1497 1499 1501 1502 1504 1503 1503 1504 1505 1507 1509 1511 1512 1514 1514 1514 1515 1517 1519 1521 1522 1522 1524 1525 1527 1526 1530 1532 1531 1529 1529 1531 1532 1533 1533
1488 1488 1488 1487 1486 1487 1487 1488 1490 1492 1494 1495 1497 1499 1499 1499 1500 1499 1500 1502 1505 1506 1508 1509 1510 1511 1511 1513 1514 1515 1517 1517 1518 1519 1522 1525 1523 1523 1523 1524 1525 1527 1527
1488 1488 1487 1487 1485 1484 1484 1483 1484 1485 1486 1488 1489 1490 1493 1494 1496 1497 1497 1497 1498 1498 1500 1502 1504 1504 1505 1505 1507 1508 1508 1511 1510 1512 1513 1516 1517 1517 1519 1518 1519 1521 1522
1487 1487 1487 1486 1484 1484 1483 1482 1482 1482 1482 1482 1483 1485 1487 1489 1491 1492 1493 1494 1495 1493 1492 1494 1497 1497 1499 1499 1500 1500 1501 1500 1504 1503 1505 1508 1510 1511 1512 1511 1513 1514 1515
1486 1486 1486 1485 1485 1483 1482 1482 1482 1481 1480 1480 1480 1480 1482 1484 1486 1487 1488 1488 1488 1488 1487 1486 1486 1488 1489 1491 1492 1493 1493 1493 1496 1497 1498 1498 1499 1500 1503 1506 1507 1508 1509
1485 1485 1485 1485 1484 1483 1482 1481 1480 1480 1479 1478 1477 1478 1478 1478 1480 1482 1483 1483 1483 1482 1482 1481 1481 1481 1482 1483 1484 1485 1485 1485 1486 1489 1489 1491 1492 1494 1496 1500 1499 1498 1500
1484 1484 1484 1484 1483 1481 1480 1479 1478 1477 1476 1475 1475 1475 1475 1476 1476 1476 1477 1478 1478 1478 1478 1476 1474 1474 1473 1474 1477 1477 1478 1478 1479 1480 1483 1483 1484 1487 1488 1488 1491 1491 1492
1483 1483 1482 1481 1480 1478 1476 1475 1474 1473 1472 1472 1471 1471 1471 1472 1471 1471 1471 1472 1473 1473 1472 1472 1470 1468 1468 1469 1469 1469 1470 1471 1472 1473 1475 1474 1476 1479 1479 1479 1484 1484 1488
1482 1482 1480 1478 1477 1475 1473 1472 1471 1470 1470 1469 1468 1468 1468 1468 1468 1467 1467 1467 1467 1467 1466 1465 1464 1463 1463 1463 1463 1463 1464 1465 1465 1465 1467 1469 1470 1472 1472 1475 1476 1477 1479
1480 1479 1478 1476 1475 1474 1472 1471 1470 1469 1468 1467 1466 1465 1465 1465 1463 1462 1462 1462 1462 1461 1460 1459 1457 1456 1455 1455 1456 1457 1457 1457 1459 1459 1459 1462 1463 1463 1461 1466 1469 1469 1478
1478 1477 1476 1475 1476 1474 1471 1470 1468 1467 1466 1465 1464 1463 1462 1460 1459 1457 1457 1458 1456 1456 1455 1454 1452 1452 1451 1451 1450 1452 1452 1452 1453 1454 1454 1455 1457 1460 1461 1464 1467 1473 1472
1476 1475 1475 1474 1474 1472 1470 1468 1466 1466 1465 1463 1462 1461 1459 1457 1455 1454 1454 1453 1452 1451 1451 1450 1449 1448 1448 1447 1447 1448 1448 1448 1449 1450 1452 1453 1456 1459 1462 1464 1465 1468 1469
1473 1473 1473 1473 1472 1470 1469 1467 1466 1466 1464 1463 1461 1460 1458 1455 1454 1453 1452 1451 1450 1449 1447 1447 1446 1445 1444 1444 1443 1444 1446 1446 1446 1450 1452 1453 1455 1458 1461 1463 1464 1464 1465
1471 1472 1472 1472 1471 1469 1468 1466 1465 1465 1464 1462 1460 1458 1455 1453 1451 1451 1450 1449 1448 1447 1447 1446 1444 1443 1443 1444 1444 1444 1446 1449 1449 1451 1454 1455 1456 1458 1460 1461 1463 1463 1465
1469 1470 1469 1470 1469 1468 1466 1466 1466 1464 1462 1460 1459 1457 1455 1453 1452 1452 1450 1449 1448 1448 1447 1445 1446 1445 1445 1447 1449 1449 1451 1453 1453 1454 1455 1455 1456 1458 1459 1460 1462 1463 1462
1467 1467 1468 1468 1468 1466 1466 1465 1465 1463 1461 1459 1457 1456 1455 1453 1454 1453 1452 1453 1451 1451 1450 1451 1451 1450 1450 1452 1451 1452 1453 1453 1455 1454 1456 1456 1456 1457 1458 1459 1460 1460 1460
1464 1465 1467 1467 1466 1465 1465 1464 1463 1462 1459 1458 1457 1457 1456 1455 1457 1457 1455 1455 1456 1455 1455 1455 1454 1454 1455 1457 1457 1455 1455 1454 1456 1456 1456 1456 1456 1456 1457 1458 1458 1458 1457
1464 1464 1464 1464 1464 1464 1464 1463 1462 1460 1459 1458 1458 1458 1458 1458 1460 1460 1460 1460 1460 1460 1460 1459 1459 1459 1459 1459 1460 1459 1458 1458 1459 1458 1458 1457 1455 1455 1455 1455 1455 1455 1455
1462 1462 1462 1461 1462 1462 1462 1461 1460 1460 1460 1460 1460 1461 1461 1462 1463 1463 1463 1463 1463 1463 1463 1462 1462 1461 1461 1462 1462 1462 1461 1460 1459 1458 1456 1455 1453 1453 1452 1452 1453 1452 1453
1459 1460 1460 1460 1460 1460 1460 1461 1460 1460 1462 1462 1463 1464 1465 1465 1466 1467 1467 1466 1466 1466 1466 1465 1464 1463 1462 1462 1461 1461 1460 1459 1457 1456 1455 1453 1452 1451 1451 1450 1450 1450 1450
1457 1458 1458 1459 1459 1460 1461 1461 1461 1462 1463 1465 1466 1467 1468 1468 1469 1469 1468 1468 1468 1468 1467 1466 1464 1463 1462 1462 1461 1460 1459 1458 1456 1455 1453 1451 1450 1449 1448 1448 1448 1448 1448
1456 1457 1456 1458 1459 1460 1461 1462 1463 1464 1464 1467 1468 1469 1469 1470 1471 1470 1470 1470 1469 1469 1468 1467 1465 1464 1463 1461 1460 1458 1457 1456 1454 1453 1451 1450 1449 1448 1447 1447 1447 1447 1446
1454 1455 1455 1457 1458 1460 1462 1464 1465 1466 1467 1468 1469 1469 1470 1471 1472 1472 1471 1470 1469 1469 1468 1466 1465 1464 1462 1461 1460 1458 1457 1455 1454 1452 1450 1449 1448 1448 1448 1447 1446 1445 1444
1453 1454 1454 1456 1458 1459 1462 1464 1466 1467 1468 1469 1469 1470 1471 1472 1472 1471 1470 1470 1470 1469 1468 1466 1465 1463 1462 1460 1459 1457 1455 1453 1452 1450 1449 1448 1448 1447 1446 1445 1444 1444 1442
1450 1451 1453 1454 1457 1458 1461 1463 1465 1467 1468 1469 1469 1470 1471 1471 1471 1471 1470 1470 1469 1468 1467 1465 1464 1462 1460 1458 1457 1455 1453 1452 1450 1449 1448 1448 1447 1446 1445 1444 1443 1441 1440